Voltar ao catálogo

FENGYUN 1C DEB

LostPO
NORAD 31954·DEBRIS·🇨🇳 China

Lançado May 10, 1999 de Taiyuan Satellite Launch Center

Loading…

Próximas Passagens (próximas 24 horas)

TLE

ObsoletoSource: Space-Track

Época: Jun 22, 2022, 03:45 UTC

1 31954U 99025CNF 22173.15635971  .00001047  00000-0  71848-3 0  9992
2 31954  98.1507 297.0527 0094008 166.2118 194.1649 13.99282177773619

Acompanhe FENGYUN 1C DEB em tempo real com AllMySat

Download on the App Store